Hourly Data Report for October 10, 2016

All times are specified in Local Standard Time (LST). Add 1 hour to adjust for Daylight Saving Time where and when it is observed.

MONCTON INTL A
NEW BRUNSWICK

46°06'44.000" N
64°40'43.000" W
70.70 m
8103201
71705
YQM

Download Data

Hourly Data (October 2016)
Hourly Data Report for October 10, 2016
Temp Definition
°C
Dew Point Temp Definition
°C
Rel Hum Definition
%
Wind Dir Definition
10's deg

Wind Spd Definition
km/h
Visibility Definition
km
Stn Press Definition
kPa
Hmdx Definition


Wind Chill Definition


Weather Definition


TIME
00:00 Legend Double Dagger 8.8 7.9 94 2 26 9.7 100.70     Rain,Fog
01:00 Legend Double Dagger 8.5 7.9 96 1 16 9.7 100.62     Rain,Fog
02:00 Legend Double Dagger 8.8 8.4 97 36 20 48.3 100.48     Rain
03:00 Legend Double Dagger 8.9 8.2 95 2 36 11.3 100.36     Rain
04:00 Legend Double Dagger 8.1 7.5 96 1 29 9.7 100.30     Rain,Fog
05:00 Legend Double Dagger 7.8 7.1 95 1 36 9.7 100.25     Rain,Fog
06:00 Legend Double Dagger 7.7 7.0 95 1 39 9.7 100.17     Rain,Fog
07:00 Legend Double Dagger 7.9 7.2 95 2 28 6.4 100.14     Rain,Fog
08:00 Legend Double Dagger 8.0 7.1 94 1 35 4.8 100.16     Rain,Fog
09:00 Legend Double Dagger 8.1 7.4 95 2 32 4.8 100.18     Rain,Fog
10:00 Legend Double Dagger 8.4 7.5 94 1 35 6.4 100.15     Rain,Fog
11:00 Legend Double Dagger 9.1 7.9 92 1 49 6.4 99.91     Rain,Fog
12:00 Legend Double Dagger 9.0 7.9 93 36 48 9.7 99.88     Rain,Fog
13:00 Legend Double Dagger 8.7 7.3 91 36 46 9.7 99.95     Rain,Fog
14:00 Legend Double Dagger 8.2 7.1 93 35 43 9.7 99.98     Rain,Fog
15:00 Legend Double Dagger 7.9 6.7 92 35 41 9.7 100.11     Rain,Fog
16:00 Legend Double Dagger 7.4 6.0 91 35 39 16.1 100.23     Rain
17:00 Legend Double Dagger 7.5 5.3 86 35 36 19.3 100.30     Mostly Cloudy
18:00 Legend Double Dagger 7.8 4.2 78 35 41 24.1 100.43     LegendNANA
19:00 Legend Double Dagger 7.5 3.9 78 34 35 24.1 100.58     Rain
20:00 Legend Double Dagger 7.0 2.3 72 33 36 24.1 100.72     Rain
21:00 Legend Double Dagger 6.6 1.7 71 33 27 24.1 100.84     LegendNANA
22:00 Legend Double Dagger 6.1 1.1 70 32 31 24.1 100.95     LegendNANA
23:00 Legend Double Dagger 5.9 1.3 72 31 25 24.1 101.02     Mostly Cloudy

Notes on Data Quality.

Legend

  • E = Estimated
  • M = Missing
  • NA = Not Available
  • ‡ = Partner data that is not subject to review by the National Climate Archives
Date modified: